• In Germany
  • List of Countries
  • For 7 days
  • Water Temperature
  • Satellite Maps
  • Weather Map
  • Weather Widgets
  • user-avatar
    Login

    Hourly Weather Baunt

    Today, 20 July, Friday

    Time Temperature Precipitation Wind Pressure Humidity
    00:00 +15°C° 0 mm 1 mps 660 mmHg 86%
    01:00 +14°C° 0 mm 1 mps 660 mmHg 88%
    02:00 +14°C° 0 mm 1 mps 659 mmHg 89%
    03:00 +14°C° 0 mm 1 mps 659 mmHg 90%
    04:00 +14°C° 0 mm 1 mps 659 mmHg 90%
    05:00 +14°C° 0 mm 1 mps 660 mmHg 90%
    06:00 +15°C° 0 mm 1 mps 660 mmHg 84%
    07:00 +17°C° 0 mm 2 mps 660 mmHg 77%
    08:00 +19°C° 0 mm 2 mps 661 mmHg 70%
    09:00 +21°C° 0 mm 2 mps 661 mmHg 64%
    10:00 +22°C° 0 mm 3 mps 661 mmHg 59%
    11:00 +24°C° 0 mm 3 mps 661 mmHg 53%
    12:00 +25°C° 0 mm 4 mps 661 mmHg 51%
    13:00 +25°C° 0 mm 4 mps 661 mmHg 48%
    14:00 +26°C° 0 mm 4 mps 660 mmHg 45%
    15:00 +26°C° 0 mm 4 mps 660 mmHg 46%
    16:00 +26°C° 0 mm 4 mps 660 mmHg 46%
    17:00 +26°C° 0 mm 4 mps 660 mmHg 46%
    18:00 +24°C° 0 mm 3 mps 660 mmHg 53%
    19:00 +22°C° 0 mm 3 mps 659 mmHg 60%
    20:00 +21°C° 0 mm 2 mps 659 mmHg 67%
    21:00 +20°C° 0 mm 2 mps 659 mmHg 70%
    22:00 +18°C° 0 mm 2 mps 658 mmHg 74%
    23:00 +17°C° 0 mm 2 mps 658 mmHg 77%

    Tomorrow, 21 July, Saturday

    Time Temperature Precipitation Wind Pressure Humidity
    00:00 +17°C° 0 mm 2 mps 658 mmHg 79%
    01:00 +16°C° 0 mm 2 mps 657 mmHg 80%
    02:00 +16°C° 0 mm 2 mps 657 mmHg 81%
    03:00 +16°C° 0.1 mm 2 mps 657 mmHg 82%
    04:00 +16°C° 0.1 mm 2 mps 656 mmHg 82%
    05:00 +16°C° 0.1 mm 2 mps 656 mmHg 83%
    06:00 +16°C° 1.4 mm 2 mps 656 mmHg 84%
    07:00 +16°C° 1.4 mm 3 mps 655 mmHg 86%
    08:00 +16°C° 1.4 mm 3 mps 655 mmHg 88%
    09:00 +16°C° 1.7 mm 3 mps 655 mmHg 88%
    10:00 +16°C° 1.7 mm 3 mps 654 mmHg 89%
    11:00 +15°C° 1.7 mm 4 mps 654 mmHg 89%
    12:00 +16°C° 2 mm 3 mps 654 mmHg 91%
    13:00 +16°C° 2 mm 3 mps 653 mmHg 92%
    14:00 +16°C° 2 mm 2 mps 653 mmHg 94%
    15:00 +16°C° 1 mm 2 mps 653 mmHg 93%
    16:00 +16°C° 1 mm 2 mps 652 mmHg 93%
    17:00 +18°C° 1 mm 1 mps 652 mmHg 93%
    18:00 +16°C° 1.7 mm 1 mps 652 mmHg 94%
    19:00 +16°C° 1.7 mm 1 mps 652 mmHg 94%
    20:00 +16°C° 1.7 mm 1 mps 651 mmHg 95%
    21:00 +16°C° 1.7 mm 1 mps 651 mmHg 95%
    22:00 +16°C° 1.7 mm 1 mps 651 mmHg 96%
    23:00 +15°C° 1.7 mm 2 mps 651 mmHg 96%

    Day after tomorrow, 22 July, Sunday

    Time Temperature Precipitation Wind Pressure Humidity
    00:00 +15°C° 3.2 mm 2 mps 650 mmHg 96%
    01:00 +15°C° 3.2 mm 2 mps 650 mmHg 96%
    02:00 +15°C° 3.2 mm 2 mps 650 mmHg 97%
    03:00 +14°C° 2.2 mm 3 mps 650 mmHg 97%
    04:00 +13°C° 2.2 mm 3 mps 650 mmHg 97%
    05:00 +13°C° 2.2 mm 3 mps 650 mmHg 97%
    06:00 +13°C° 1.1 mm 3 mps 650 mmHg 95%
    07:00 +13°C° 1.1 mm 3 mps 651 mmHg 94%
    08:00 +13°C° 1.1 mm 3 mps 651 mmHg 93%
    09:00 +13°C° 0.3 mm 4 mps 652 mmHg 89%
    10:00 +14°C° 0.3 mm 4 mps 652 mmHg 84%
    11:00 +15°C° 0.3 mm 5 mps 653 mmHg 80%
    12:00 +15°C° 0.1 mm 5 mps 654 mmHg 77%
    13:00 +16°C° 0.1 mm 5 mps 654 mmHg 73%
    14:00 +16°C° 0.1 mm 5 mps 655 mmHg 70%
    15:00 +16°C° 0.1 mm 5 mps 655 mmHg 71%
    16:00 +15°C° 0.1 mm 5 mps 656 mmHg 71%
    17:00 +14°C° 0.1 mm 5 mps 656 mmHg 72%
    18:00 +13°C° 0.1 mm 5 mps 656 mmHg 75%
    19:00 +12°C° 0.1 mm 4 mps 657 mmHg 78%
    20:00 +11°C° 0.1 mm 4 mps 657 mmHg 80%
    21:00 +10°C° 0 mm 3 mps 657 mmHg 83%
    22:00 +10°C° 0 mm 3 mps 657 mmHg 85%
    23:00 +9°C° 0 mm 3 mps 658 mmHg 87%

    23 July, Monday

    Time Temperature Precipitation Wind Pressure Humidity
    00:00 +8°C° 0 mm 3 mps 658 mmHg 88%
    01:00 +7°C° 0 mm 3 mps 658 mmHg 89%
    02:00 +7°C° 0 mm 2 mps 658 mmHg 90%
    03:00 +7°C° 0 mm 2 mps 658 mmHg 91%
    04:00 +6°C° 0 mm 2 mps 658 mmHg 92%
    05:00 +6°C° 0 mm 2 mps 658 mmHg 93%
    06:00 +8°C° 0 mm 2 mps 659 mmHg 86%
    07:00 +9°C° 0 mm 3 mps 659 mmHg 79%
    08:00 +11°C° 0 mm 3 mps 660 mmHg 71%
    09:00 +13°C° 0 mm 3 mps 660 mmHg 66%
    10:00 +14°C° 0 mm 3 mps 660 mmHg 60%
    11:00 +17°C° 0 mm 3 mps 661 mmHg 55%
    12:00 +18°C° 0 mm 3 mps 661 mmHg 51%
    13:00 +19°C° 0 mm 2 mps 661 mmHg 47%
    14:00 +20°C° 0 mm 2 mps 661 mmHg 44%
    15:00 +20°C° 0 mm 2 mps 661 mmHg 43%
    16:00 +20°C° 0 mm 2 mps 661 mmHg 42%
    17:00 +21°C° 0 mm 1 mps 661 mmHg 41%
    18:00 +20°C° 0 mm 1 mps 661 mmHg 47%
    19:00 +19°C° 0 mm 1 mps 661 mmHg 53%
    20:00 +16°C° 0 mm 1 mps 660 mmHg 59%
    21:00 +15°C° 0 mm 1 mps 660 mmHg 63%
    22:00 +13°C° 0 mm 1 mps 660 mmHg 67%
    23:00 +11°C° 0 mm 1 mps 660 mmHg 72%

    24 July, Tuesday

    Time Temperature Precipitation Wind Pressure Humidity
    00:00 +11°C° 0 mm 1 mps 660 mmHg 74%
    01:00 +10°C° 0 mm 1 mps 660 mmHg 76%
    02:00 +10°C° 0 mm 1 mps 659 mmHg 78%
    03:00 +10°C° 0 mm 1 mps 659 mmHg 79%
    04:00 +10°C° 0 mm 1 mps 659 mmHg 81%
    05:00 +9°C° 0 mm 1 mps 659 mmHg 82%
    06:00 +12°C° 0 mm 1 mps 660 mmHg 76%
    07:00 +14°C° 0 mm 1 mps 661 mmHg 70%
    08:00 +16°C° 0 mm 1 mps 661 mmHg 63%
    09:00 +18°C° 0 mm 1 mps 661 mmHg 59%
    10:00 +20°C° 0 mm 1 mps 661 mmHg 55%
    11:00 +21°C° 0 mm 1 mps 661 mmHg 51%
    12:00 +22°C° 0 mm 1 mps 661 mmHg 47%
    13:00 +23°C° 0 mm 1 mps 661 mmHg 44%
    14:00 +23°C° 0 mm 1 mps 661 mmHg 41%
    15:00 +24°C° 0 mm 1 mps 661 mmHg 41%
    16:00 +24°C° 0 mm 1 mps 661 mmHg 41%
    17:00 +24°C° 0 mm 1 mps 661 mmHg 40%
    18:00 +23°C° 0 mm 1 mps 661 mmHg 48%
    19:00 +21°C° 0 mm 1 mps 661 mmHg 56%
    20:00 +19°C° 0 mm 2 mps 661 mmHg 64%
    21:00 +18°C° 0 mm 1 mps 660 mmHg 69%
    22:00 +16°C° 0 mm 1 mps 660 mmHg 75%
    23:00 +14°C° 0 mm 1 mps 660 mmHg 81%

    25 July, Wednesday

    Time Temperature Precipitation Wind Pressure Humidity
    00:00 +14°C° 0 mm 1 mps 660 mmHg 83%
    01:00 +13°C° 0 mm 1 mps 660 mmHg 85%
    02:00 +13°C° 0 mm 1 mps 660 mmHg 87%
    03:00 +13°C° 0 mm 1 mps 660 mmHg 88%
    04:00 +12°C° 0 mm 1 mps 660 mmHg 88%
    05:00 +12°C° 0 mm 1 mps 659 mmHg 89%
    06:00 +14°C° 0 mm 1 mps 660 mmHg 83%
    07:00 +16°C° 0 mm 1 mps 660 mmHg 77%
    08:00 +18°C° 0 mm 2 mps 661 mmHg 70%
    09:00 +19°C° 0 mm 2 mps 661 mmHg 69%
    10:00 +20°C° 0 mm 2 mps 661 mmHg 68%
    11:00 +21°C° 0 mm 2 mps 661 mmHg 67%
    12:00 +21°C° 0.1 mm 2 mps 661 mmHg 65%
    13:00 +23°C° 0.1 mm 2 mps 661 mmHg 64%
    14:00 +24°C° 0.1 mm 2 mps 661 mmHg 62%
    15:00 +24°C° 0.2 mm 3 mps 660 mmHg 63%
    16:00 +24°C° 0.2 mm 3 mps 660 mmHg 63%
    17:00 +24°C° 0.2 mm 3 mps 660 mmHg 64%
    18:00 +21°C° 0.5 mm 3 mps 660 mmHg 71%
    19:00 +20°C° 0.5 mm 2 mps 660 mmHg 77%
    20:00 +19°C° 0.5 mm 2 mps 660 mmHg 84%
    21:00 +19°C° 0.3 mm 1 mps 660 mmHg 87%
    22:00 +16°C° 0.3 mm 1 mps 659 mmHg 91%
    23:00 +15°C° 0.3 mm 1 mps 659 mmHg 94%
    Show more